Weather History for Pierre, SD

Change the Weather History Date:

Wednesday, July 17, 2013

  Actual Average Record
Temperature  
Mean Temperature 81 °F 76 °F  
Max Temperature 93 °F 90 °F 109 °F (1936)
Min Temperature 68 °F 62 °F 48 °F (2009)
Degree Days  
Heating Degree Days 0 0  
Month to date heating degree days 0 0  
Since 1 June heating degree days 60 53  
Since 1 July heating degree days 0 0  
Cooling Degree Days 16 11  
Month to date cooling degree days 178 168  
Year to date cooling degree days 319 334  
Since 1 June cooling degree days 297 302  
Growing Degree Days 31 (Base 50)    
Moisture  
Dew Point 62 °F    
Average Humidity 56    
Maximum Humidity 78    
Minimum Humidity 33    
Precipitation  
Precipitation 0.00 in 0.08 in 1.77 in (1969)
Month to date precipitation 2.09 1.43  
Year to date precipitation 13.91 12.20  
Sea Level Pressure  
Sea Level Pressure 30.06 in    
Wind  
Wind Speed 12 mph (SSE)    
Max Wind Speed 24 mph    
Max Gust Speed 30 mph    
Visibility 10 miles    
Events      
T = Trace of Precipitation, MM = Missing Value Source: NWS Daily Summary

Daily Weather History Graph

Daily Weather History Graph

Search for Another Location

Airport:

Trip Planner

Search our weather history database for the weather conditions in past years. The results will help you decide how hot, cold, wet, or windy it might be!

Date:

Astronomy

Jul. 17, 2013 Rise Set
Actual Time 6:13 AM CDT 9:21 PM CDT
Civil Twilight 5:37 AM CDT 9:56 PM CDT
Nautical Twilight 4:52 AM CDT 10:41 PM CDT
Astronomical Twilight 3:57 AM CDT 11:35 PM CDT
Moon 4:09 PM CDT (7/17) 1:25 AM CDT (7/17)
Length of Visible Light 16h 18m
Length of Day
15h 08m
Waxing Gibbous, 67% of the Moon is Illuminated
Jul 17
Waxing Gibbous
Jul 22
Full
Jul 29
Last Quarter
Aug 6
New
Aug 14
First Quarter

Hourly Weather History & Observations

Time (CDT) Temp. Heat Index Dew Point Humidity Pressure Visibility Wind Dir Wind Speed Gust Speed Precip Events Conditions
12:53 AM 71.1 °F - 63.0 °F 75% 30.11 in 10.0 mi ESE 6.9 mph - N/A   Clear
1:53 AM 72.0 °F - 63.0 °F 73% 30.11 in 10.0 mi SE 8.1 mph - N/A   Clear
2:53 AM 72.0 °F - 63.0 °F 73% 30.11 in 10.0 mi SE 4.6 mph - N/A   Clear
3:53 AM 73.0 °F - 62.1 °F 68% 30.11 in 10.0 mi South 10.4 mph 17.3 mph N/A   Clear
4:53 AM 73.9 °F - 61.0 °F 64% 30.10 in 10.0 mi South 12.7 mph - N/A   Clear
5:53 AM 70.0 °F - 61.0 °F 73% 30.12 in 10.0 mi SSE 6.9 mph - N/A   Clear
6:53 AM 69.1 °F - 62.1 °F 78% 30.12 in 10.0 mi SSE 4.6 mph - N/A   Clear
7:53 AM 72.0 °F - 63.0 °F 73% 30.13 in 10.0 mi SSE 8.1 mph - N/A   Clear
8:53 AM 75.9 °F - 64.0 °F 67% 30.13 in 10.0 mi South 12.7 mph - N/A   Clear
9:53 AM 79.0 °F - 64.0 °F 60% 30.12 in 10.0 mi South 15.0 mph - N/A   Clear
10:53 AM 82.9 °F 84.4 °F 64.0 °F 53% 30.12 in 10.0 mi South 10.4 mph - N/A   Clear
11:53 AM 86.0 °F 86.8 °F 63.0 °F 46% 30.11 in 10.0 mi South 12.7 mph - N/A   Clear
12:53 PM 88.0 °F 88.4 °F 62.1 °F 42% 30.10 in 10.0 mi SSW 13.8 mph 21.9 mph N/A   Clear
1:53 PM 91.0 °F 91.9 °F 63.0 °F 39% 30.07 in 10.0 mi South 13.8 mph 19.6 mph N/A   Partly Cloudy
2:53 PM 91.9 °F 91.8 °F 61.0 °F 35% 30.04 in 10.0 mi SSE 13.8 mph 25.3 mph N/A   Clear
3:53 PM 93.0 °F 93.8 °F 62.1 °F 36% 30.02 in 10.0 mi South 18.4 mph 26.5 mph N/A   Clear
4:53 PM 93.0 °F 92.7 °F 60.1 °F 33% 30.01 in 10.0 mi South 13.8 mph 26.5 mph N/A   Clear
5:53 PM 93.0 °F 93.0 °F 61.0 °F 34% 29.99 in 10.0 mi South 16.1 mph 28.8 mph N/A   Clear
6:53 PM 91.0 °F 90.9 °F 61.0 °F 36% 29.98 in 10.0 mi SSE 18.4 mph 27.6 mph N/A   Clear
7:53 PM 89.1 °F 89.0 °F 61.0 °F 39% 29.96 in 10.0 mi SSE 18.4 mph 25.3 mph N/A   Clear
8:53 PM 84.9 °F 85.9 °F 63.0 °F 48% 29.96 in 10.0 mi SSE 13.8 mph - N/A   Clear
9:53 PM 82.0 °F 83.1 °F 63.0 °F 52% 29.96 in 10.0 mi SSE 15.0 mph - N/A   Clear
10:53 PM 79.0 °F - 63.0 °F 58% 29.97 in 10.0 mi SSE 10.4 mph - N/A   Clear
11:53 PM 77.0 °F - 64.0 °F 64% 29.96 in 10.0 mi SSE 9.2 mph - N/A   Clear